Regional Weather Roundup
Issued by NWS

Home | Current Version | Previous Version | Graphics & Text | Print | Product List | Glossary Off
Versions: 1 2 3 4 5 6 7 8 9 10 11 12 13 14 15 16 17 18 19 20 21 22 23 24 25 26 27 28 29 30 31 32 33 34 35 36 37 38 39 40 41 42 43 44 45 46 47 48 49 50

000
ASUS43 KMKX 231900
RWRWI

WISCONSIN REGIONAL WEATHER ROUNDUP
NATIONAL WEATHER SERVICE MILWAUKEE/SULLIVAN WI
200 PM CDT TUE SEP 23 2014

NOTE: "FAIR" INDICATES FEW OR NO CLOUDS BELOW 12,000 FEET WITH NO
SIGNIFICANT WEATHER AND/OR OBSTRUCTIONS TO VISIBILITY.

WIZ001-002-006>008-014>016-023>028-232000-
NORTHWEST WISCONSIN

CITY           SKY/WX    TMP DP  RH WIND       PRES   REMARKS
SUPERIOR ARPT  SUNNY     74  53  48 SW12G17   30.18F
ASHLAND        SUNNY     76  53  44 SW9       30.21F
HAYWARD        SUNNY     71  50  47 S14G21    30.22F
SIREN          SUNNY     72  49  43 S12G18    30.21F
CUMBERLAND     CLEAR     70  46  43 S10G16    30.23F
RICE LAKE      SUNNY     71  49  46 S15       30.25F
CHETEK         CLEAR     71  52  49 S6G16     30.24F
LADYSMITH      SUNNY     72  50  45 S12G17    30.27F
EAU CLAIRE     NOT AVBL
MENOMONIE      PTCLDY    73  51  46 S12       30.23F
NEW RICHMOND   MOSUNNY   72  48  42 S14       30.22F
OSCEOLA        MOSUNNY   73  50  45 S14G20    30.23F
$$

WIZ003>005-009-010-017-018-232000-
NORTH CENTRAL WISCONSIN

CITY           SKY/WX    TMP DP  RH WIND       PRES   REMARKS
MANITOWISH WTR CLEAR     71  49  46 S6        30.25F
ARBOR VITAE    SUNNY     72  50  46 S10       30.26F
WOODRUFF       SUNNY     72  50  46 S10       30.26F
RHINELANDER    SUNNY     71  49  45 S9        30.27F
EAGLE RIVER    SUNNY     71  47  43 SW5       30.26F
LAND O LAKES   SUNNY     72  49  44 SW5       30.26F
PHILLIPS       SUNNY     71  51  49 SW8       30.25F
TOMAHAWK       SUNNY     71  48  43 CALM      30.27F
MEDFORD        SUNNY     70  49  48 SW10      30.27F
MERRILL        SUNNY     72  50  46 SW7       30.27F
$$

WIZ029-030-035-036-043>047-232000-
CENTRAL WISCONSIN

CITY           SKY/WX    TMP DP  RH WIND       PRES   REMARKS
WAUSAU         SUNNY     72  50  45 W7        30.26F
MOSINEE        SUNNY     72  52  49 SW5       30.28F
MARSHFIELD     SUNNY     72  50  45 SW9       30.26F
STEVENS POINT  SUNNY     69  49  48 SW7       30.29S
WAUPACA        SUNNY     75  51  42 CALM      30.28F
WAUTOMA        NOT AVBL
WISC RAPIDS    SUNNY     72  51  47 MISG      30.28F
CAMP DOUGLAS   NOT AVBL
$$

WIZ011>013-019>022-031-037>040-048>050-232000-
NORTHEAST WISCONSIN

CITY           SKY/WX    TMP DP  RH WIND       PRES   REMARKS
ANTIGO         SUNNY     69  49  49 SW6       30.29S
SHAWANO        CLEAR     74  50  42 W6        30.28F
OCONTO         CLEAR     72  56  55 S6        30.27S
STURGEON BAY   SUNNY     72  54  53 SW8       30.28F
GREEN BAY      SUNNY     73  53  49 SW9       30.28F
MANITOWOC      NOT AVBL
APPLETON       SUNNY     72  50  46 SW9       30.29F
CLINTONVILLE   SUNNY     73  50  43 SW8       30.27F
OSHKOSH        SUNNY     73  51  46 SW7       30.28F
$$

WIZ032>034-041-042-053>061-232000-
SOUTHWEST WISCONSIN

CITY           SKY/WX    TMP DP  RH WIND       PRES   REMARKS
LA CROSSE      MOSUNNY   75  50  41 S12       30.25F
SPARTA         SUNNY     72  49  44 SW7       30.28F
VIROQUA        PTCLDY    69  51  53 S8        30.29F
BOSCOBEL       MOSUNNY   75  50  41 VRB5      30.28F
PRAIRIE DU CHI SUNNY     72  47  42 SE7       30.27F
PLATTEVILLE    SUNNY     71  47  42 S9        30.31F
$$

WIZ056-057-062-063-064-067-068-232000-
SOUTH CENTRAL WISCONSIN

CITY           SKY/WX    TMP DP  RH WIND       PRES   REMARKS
REEDSBURG      CLEAR     70  52  53 SW5       30.28F
BARABOO/DELLS  SUNNY     73  46  38 SW9       30.29F
LONE ROCK      NOT AVBL
MINERAL POINT  SUNNY     72  45  37 S8        30.31F
MADISON        MOSUNNY   73  49  42 S8        30.29F
MIDDLETON      CLEAR     74  45  35 SW9       30.30F
WATERTOWN      SUNNY     73  51  47 S8        30.30F
MONROE         SUNNY     70  48  46 S7        30.30F
JANESVILLE     SUNNY     73  46  38 S8        30.30F
$$

WIZ051-052-058>065-066-070>072-232000-
SOUTHEAST WISCONSIN

CITY           SKY/WX    TMP DP  RH WIND       PRES   REMARKS
MILWAUKEE      MOSUNNY   73  50  44 VRB5      30.30F
WAUKESHA       SUNNY     70  48  46 W6        30.32F
MILWAUKEE/TIMM SUNNY     72  46  40 SW6       30.31F
RACINE         SUNNY     73  50  44 VRB3      30.32F
BURLINGTON     SUNNY     72  47  41 S7        30.31F
KENOSHA        SUNNY     72  51  47 SW7       30.32F
FOND DU LAC    SUNNY     73  51  46 S10       30.29F
SHEBOYGAN      SUNNY     74  50  42 MISG      30.29F
WEST BEND      SUNNY     72  46  40 SW5       30.30F
JUNEAU         SUNNY     71  50  47 SW7       30.31F
$$

LSZ147-162-232000-
LAKE SUPERIOR

STATION/POSITION TIME  TEMP    WIND        PRES    WAVE
                       AIR SEA DIR/SP/G            HT/PER
                 (UTC) (F)     (DEG/KT/KT) (MB)    (FT/S)
W MID LAKE BUOY  1750   52 49  230/  6/  6 1023.6R   1/ 3
DEVILS ISLAND    1800   61     240/  5/  7 1023.2F
PORT WING        1800   61     360/  3/  4 1022.7F
SAXON HARBOR     1800   74     190/  4/  8 1023.0F
$$

LMZ867-665-643>646-232000-
LAKE MICHIGAN

STATION/POSITION TIME  TEMP    WIND        PRES    WAVE
                       AIR SEA DIR/SP/G            HT/PER
                 (UTC) (F)     (DEG/KT/KT) (MB)    (FT/S)
CHAMBERS ISLAND  1800   66     170/  5/  8 1025.1S
S GREEN BAY BUOY 1830   63                 1026.2F
N MID LAKE BUOY  1750   58 58  200/  8/ 10 1025.4R   1/ 4
NORTHPORT PIER   1800   62     140/  4/  6 1024.7S
SISTER BAY       1712          300/  9/  9   N/A
KEWAUNEE LAKESHO 1800   57     180/  7/  9 1024.8R
SHEBOYGAN LAKESH 1800   56 55  170/ 10/ 11 1026.5F
PORT WASHINGTON  1800   63     150/  4/  7 1026.8S
ATWATER BUOY     1800   61     120/  8/  8 1027.4F
S MID LAKE BUOY  1750   61 61  220/ 10/ 10 1027.7R   1/ 3
KENOSHA   LAKESH 1800   70     300/  4/  7 1026.4F
$$

TC  - TEMPERATURE IN CELSIUS
VSB - VISIBILITY IN STATUTE MILES
WCI - WIND CHILL INDEX
HX  - HEAT INDEX



USA.gov is the U.S. government's official web portal to all federal, state and local government web resources and services.